North Bend, OR

12:25 AM PDT on April 30, 2017 (GMT -0700)
North Bend Municipal

Weather History for KOTH - October, 2012

Change the Weather History Date:

Monday, October 1, 2012

  Actual Average Record
Temperature  
Mean Temperature 59 °F 55 °F  
Max Temperature 72 °F 63 °F 83 °F (1902)
Min Temperature 46 °F 48 °F 37 °F (1999)
Degree Days  
Heating Degree Days 6 10  
Month to date heating degree days 6 10  
Since 1 July heating degree days 605 618  
Cooling Degree Days 0 0  
Month to date cooling degree days 0 0  
Year to date cooling degree days 0 2  
Growing Degree Days 8 (Base 50)    
Moisture  
Dew Point 50 °F    
Average Humidity 81    
Maximum Humidity 100    
Minimum Humidity 44    
Precipitation  
Precipitation 0.00 in 0.09 in 1.26 in (1951)
Month to date precipitation 0.00 0.09  
Year to date precipitation 28.80 38.91  
Sea Level Pressure  
Sea Level Pressure 30.13 in    
Wind  
Wind Speed 10 mph (North)    
Max Wind Speed 24 mph    
Max Gust Speed 30 mph    
Visibility 9 miles    
Events      
T = Trace of Precipitation, MM = Missing Value Source: NWS Daily Summary

Daily Weather History Graph

Daily Weather History Graph

Search for Another Location

Airport or City:

Trip Planner

Search our weather history database for the weather conditions in past years. The results will help you decide how hot, cold, wet, or windy it might be!

Date:

Astronomy

Oct. 01, 2012 Rise Set
Actual Time 7:15 AM PDT 6:57 PM PDT
Civil Twilight 6:46 AM PDT 7:25 PM PDT
Nautical Twilight 6:13 AM PDT 7:58 PM PDT
Astronomical Twilight 5:39 AM PDT 8:31 PM PDT
Moon 7:32 PM PDT (10/1) 8:54 AM PDT (10/1)
Length of Visible Light 12h 38m
Length of Day
11h 41m
Full, 97% of the Moon is Illuminated
Oct 1
Full
Oct 8
Last Quarter
Oct 15
New
Oct 21
First Quarter
Oct 29
Full

Hourly Weather History & Observations

Time (PDT) Temp. Windchill Dew Point Humidity Pressure Visibility Wind Dir Wind Speed Gust Speed Precip Events Conditions
12:15 AM 50.0 °F - 48.2 °F 94% 30.19 in 4.0 mi Calm Calm - N/A   Clear
12:35 AM 50.0 °F - 48.2 °F 94% 30.19 in 3.0 mi Calm Calm - N/A   Clear
12:55 AM 50.0 °F - 48.2 °F 94% 30.18 in 5.0 mi Calm Calm - N/A   Clear
1:15 AM 51.8 °F - 50.0 °F 94% 30.18 in 8.0 mi NNW 3.5 mph - N/A   Clear
1:35 AM 48.2 °F - 48.2 °F 100% 30.18 in 5.0 mi Calm Calm - N/A   Clear
1:55 AM 48.2 °F - 48.2 °F 100% 30.17 in 4.0 mi NW 3.5 mph - N/A   Clear
2:15 AM 48.2 °F - 48.2 °F 100% 30.17 in 3.0 mi Calm Calm - N/A   Clear
2:35 AM 48.2 °F - 48.2 °F 100% 30.17 in 3.0 mi Calm Calm - N/A   Clear
2:55 AM 48.2 °F - 48.2 °F 100% 30.17 in 4.0 mi Calm Calm - N/A   Clear
3:15 AM 48.2 °F - 48.2 °F 100% 30.16 in 3.0 mi Calm Calm - N/A   Clear
3:35 AM 46.4 °F - 46.4 °F 100% 30.16 in 3.0 mi Calm Calm - N/A   Clear
3:55 AM 48.2 °F - 46.4 °F 93% 30.15 in 3.0 mi Calm Calm - N/A   Clear
4:15 AM 48.2 °F - 48.2 °F 100% 30.15 in 6.0 mi Calm Calm - N/A   Clear
4:35 AM 48.2 °F - 46.4 °F 93% 30.15 in 8.0 mi Calm Calm - N/A   Clear
4:55 AM 46.4 °F - 46.4 °F 100% 30.15 in 8.0 mi Calm Calm - N/A   Clear
5:15 AM 48.2 °F - 48.2 °F 100% 30.15 in 10.0 mi Calm Calm - N/A   Clear
5:35 AM 48.2 °F - 48.2 °F 100% 30.15 in 10.0 mi Calm Calm - N/A   Clear
5:55 AM 46.4 °F 45.2 °F 46.4 °F 100% 30.14 in 10.0 mi North 3.5 mph - N/A   Clear
6:15 AM 48.2 °F - 48.2 °F 100% 30.14 in 10.0 mi NNE 3.5 mph - N/A   Clear
6:35 AM 48.2 °F - 48.2 °F 100% 30.14 in 10.0 mi NNE 6.9 mph - N/A   Clear
7:15 AM 48.2 °F - 48.2 °F 100% 30.14 in 10.0 mi North 5.8 mph - N/A   Clear
7:35 AM 48.2 °F - 48.2 °F 100% 30.15 in 10.0 mi NE 4.6 mph - N/A   Clear
8:15 AM 51.8 °F - 50.0 °F 94% 30.15 in 10.0 mi Calm Calm - N/A   Clear
8:35 AM 51.8 °F - 51.8 °F 100% 30.16 in 10.0 mi Calm Calm - N/A   Clear
8:55 AM 53.6 °F - 51.8 °F 94% 30.15 in 10.0 mi Calm Calm - N/A   Clear
9:15 AM 55.4 °F - 51.8 °F 88% 30.15 in 10.0 mi NE 3.5 mph - N/A   Clear
9:35 AM 59.0 °F - 51.8 °F 77% 30.15 in 10.0 mi NE 4.6 mph - N/A   Clear
9:55 AM 62.6 °F - 51.8 °F 68% 30.15 in 10.0 mi NNE 3.5 mph - N/A   Clear
10:15 AM 62.6 °F - 51.8 °F 68% 30.15 in 7.0 mi NNW 5.8 mph - N/A   Clear
10:35 AM 66.2 °F - 50.0 °F 56% 30.15 in 10.0 mi NNW 5.8 mph - N/A   Clear
10:55 AM 66.2 °F - 50.0 °F 56% 30.14 in 10.0 mi NNW 8.1 mph - N/A   Clear
11:15 AM 68.0 °F - 50.0 °F 52% 30.14 in 10.0 mi NNW 4.6 mph - N/A   Clear
11:35 AM 69.8 °F - 50.0 °F 49% 30.13 in 10.0 mi NNW 5.8 mph - N/A   Clear
12:15 PM 71.6 °F - 48.2 °F 43% 30.13 in 10.0 mi NNW 10.4 mph - N/A   Clear
12:55 PM 69.8 °F - 48.2 °F 46% 30.12 in 10.0 mi NNW 15.0 mph - N/A   Clear
1:15 PM 66.2 °F - 48.2 °F 52% 30.12 in 10.0 mi North 18.4 mph - N/A   Clear
1:35 PM 64.4 °F - 46.4 °F 52% 30.12 in 10.0 mi North 21.9 mph 26.5 mph N/A   Clear
2:15 PM 66.2 °F - 44.6 °F 46% 30.10 in 10.0 mi North 19.6 mph 27.6 mph N/A   Clear
2:35 PM 66.2 °F - 44.6 °F 46% 30.10 in 10.0 mi North 19.6 mph 25.3 mph N/A   Clear
2:55 PM 66.2 °F - 46.4 °F 49% 30.10 in 10.0 mi North 20.7 mph 26.5 mph N/A   Clear
3:15 PM 64.4 °F - 46.4 °F 52% 30.09 in 10.0 mi North 20.7 mph - N/A   Clear
3:35 PM 64.4 °F - 48.2 °F 56% 30.09 in 10.0 mi North 23.0 mph - N/A   Clear
4:15 PM 62.6 °F - 48.2 °F 59% 30.09 in 10.0 mi North 19.6 mph 25.3 mph N/A   Clear
4:35 PM 62.6 °F - 48.2 °F 59% 30.08 in 10.0 mi North 21.9 mph - N/A   Clear
4:55 PM 60.8 °F - 48.2 °F 63% 30.08 in 10.0 mi North 19.6 mph - N/A   Clear
5:15 PM 60.8 °F - 50.0 °F 68% 30.08 in 10.0 mi North 18.4 mph - N/A   Clear
5:35 PM 62.6 °F - 50.0 °F 63% 30.08 in 10.0 mi North 18.4 mph 24.2 mph N/A   Clear
5:55 PM 60.8 °F - 50.0 °F 68% 30.09 in 10.0 mi North 16.1 mph - N/A   Clear
6:15 PM 60.8 °F - 50.0 °F 68% 30.09 in 10.0 mi North 18.4 mph - N/A   Clear
6:35 PM 60.8 °F - 51.8 °F 72% 30.08 in 10.0 mi North 17.3 mph 21.9 mph N/A   Clear
6:55 PM 59.0 °F - 51.8 °F 77% 30.09 in 10.0 mi North 18.4 mph - N/A   Clear
7:15 PM 57.2 °F - 53.6 °F 88% 30.09 in 10.0 mi North 15.0 mph - N/A   Clear
7:35 PM 59.0 °F - 53.6 °F 82% 30.09 in 10.0 mi North 21.9 mph 29.9 mph N/A   Clear
7:55 PM 57.2 °F - 55.4 °F 94% 30.09 in 10.0 mi North 24.2 mph 29.9 mph N/A   Clear
8:15 PM 57.2 °F - 55.4 °F 94% 30.10 in 10.0 mi North 20.7 mph - N/A   Clear
8:35 PM 57.2 °F - 55.4 °F 94% 30.11 in 10.0 mi North 13.8 mph - N/A   Clear
8:55 PM 55.4 °F - 53.6 °F 94% 30.11 in 9.0 mi North 15.0 mph 18.4 mph N/A   Clear
9:15 PM 53.6 °F - 51.8 °F 94% 30.12 in 10.0 mi North 12.7 mph - N/A   Clear
9:35 PM 53.6 °F - 51.8 °F 94% 30.12 in 10.0 mi North 11.5 mph - N/A   Clear
9:55 PM 53.6 °F - 51.8 °F 94% 30.13 in 10.0 mi North 11.5 mph - N/A   Partly Cloudy
10:15 PM 53.6 °F - 51.8 °F 94% 30.13 in 8.0 mi North 12.7 mph - N/A   Mostly Cloudy
10:35 PM 53.6 °F - 51.8 °F 94% 30.13 in 10.0 mi North 8.1 mph - N/A   Scattered Clouds
11:15 PM 53.6 °F - 51.8 °F 94% 30.13 in 9.0 mi North 9.2 mph - N/A   Overcast